ヴァイサラ第1彗星

40P/Vaisala 1 (2014)

English version
Home page
Updated on June 11, 2016

---------------------------------------------------------------------

・ プロフィール

・ 写真集

・ 軌道要素

Epoch 2014 Oct. 30.0 TT = JDT 2456960.5
T 2014 Nov. 15.81319 TT                                 MPCW
q   1.8195633            (2000.0)            P               Q
n   0.08978217     Peri.   47.27229     -0.98918815     +0.02922786
a   4.9394204      Node   133.84020     -0.06667292     -0.96243927
e   0.6316241      Incl.   11.49278     +0.13061976     -0.26991921
P  10.98
From 1025 observations 1939 Mar. 14-2015 Aug. 12, mean residual 0".7.
     Nongravitational parameters A1 = +0.03, A2 = -0.0108.

・ 星図

・ 光度変化

        m1 = 10.5 + 5 logΔ + 15.0 log r

---------------------------------------------------------------------

軌道要素はM.P.E.C. 2016-K18に掲載されたものです。
星図はステラナビゲータ Ver.8 (アストロアーツ) で作成したものです。
光度グラフはComet for Windowsで作成したものです。

---------------------------------------------------------------------

Copyright(C) Seiichi Yoshida (comet@aerith.net). All rights reserved.